Skip Page Navigation
NASA JPL Caltech
NASA Logo - Jet Propulsion Laboratory + View the NASA Portal
+ Center for Near-Earth Object Studies
JPL Home Earth Solar System Stars & Galaxies Technology
JPL Solar System Dynamics
BODIES ORBITS EPHEMERIDES TOOLS PHYSICAL DATA DISCOVERY FAQ SITE MAP
JPL Small-Body Database Browser
Search: [ help ]  
105358 (2000 QO110)
Classification: Main-belt Asteroid          SPK-ID: 2105358
Ephemeris | Orbit Diagram | Orbital Elements | Mission Design | Physical Parameters | Discovery Circumstances ]

[ show orbit diagram ]
Orbital Elements at Epoch 2459000.5 (2020-May-31.0) TDB
Reference: JPL 18 (heliocentric ecliptic J2000)
 Element Value Uncertainty (1-sigma)   Units 
e .03611816436100984 5.1676e-08  
a 2.87319144913209 2.3253e-08 au
q 2.769417048131689 1.4669e-07 au
i 2.825207931765778 6.55e-06 deg
node 172.9091408983117 9.1151e-05 deg
peri 242.8407825022438 0.0001249 deg
M 306.597252230524 8.3142e-05 deg
tp 2459264.379940610951
(2021-Feb-18.87994061)
0.00041059 TDB
period 1778.87435736482
4.87
2.1594e-05
5.912e-08
d
yr
n .2023751697299718 2.4567e-09 deg/d
Q 2.976965850132491 2.4092e-08 au
  Orbit Determination Parameters
   # obs. used (total)      654  
   data-arc span      6477 days (17.73 yr)  
   first obs. used      2000-08-24  
   last obs. used      2018-05-19  
   planetary ephem.      DE431  
   SB-pert. ephem.      SB431-N16  
   condition code      0  
   norm. resid. RMS      .55598  
   source      ORB  
   producer      Otto Matic  
   solution date      2018-Oct-04 04:08:55  

Additional Information
 Earth MOID = 1.78179 au 
 Jupiter MOID = 2.14655 au 
 T_jup = 3.294 
[ hide covariance matrix ]
Orbital Elements at Epoch 2456602.5 (2013-Nov-06.0) TDB
Reference: JPL 18 (heliocentric ecliptic J2000)
 Element Value Uncertainty (1-sigma)   Units 
e .0373349832478451 5.4635e-08  
q 2.767183170499599 1.5557e-07 au
tp 2457457.549590369361
(2016-Mar-10.04959037)
0.00038144 TDB
node 173.0636465265995 9.1084e-05 deg
peri 237.4905662180684 0.00012057 deg
i 2.825599882818493 6.5579e-06 deg
  Orbit Determination Parameters
   # obs. used (total)      654  
   data-arc span      6477 days (17.73 yr)  
   first obs. used      2000-08-24  
   last obs. used      2018-05-19  
   planetary ephem.      DE431  
   SB-pert. ephem.      SB431-N16  
   condition code      0  
   norm. resid. RMS      .55598  
   source      ORB  
   producer      Otto Matic  
   solution date      2018-Oct-04 04:08:55  

Additional Information
 Jupiter MOID = 2.14655 au 
 T_jup = 3.294 
Orbit Covariance (6×6)
  e q tp node peri i
e 2.985021564025617E-15 -8.413623484499801E-15 -1.117359111399362E-11 5.196188450099605E-15 -2.331573479379457E-12 -4.661594359023391E-16
q -8.413623484499801E-15 2.420148147781447E-14 3.147652980033727E-11 -1.651063184383393E-14 6.520826331205433E-12 1.481434418098403E-15
tp -1.117359111399362E-11 3.147652980033727E-11 1.454948356374148E-7 -9.446209124135927E-11 3.014259610294055E-8 -3.561656704850964E-12
node 5.196188450099605E-15 -1.651063184383393E-14 -9.446209124135927E-11 8.296364846334328E-9 -8.305168727737789E-9 2.091124504384101E-10
peri -2.331573479379457E-12 6.520826331205433E-12 3.014259610294055E-8 -8.305168727737789E-9 1.453721257759394E-8 -2.096173362291473E-10
i -4.661594359023391E-16 1.481434418098403E-15 -3.561656704850964E-12 2.091124504384101E-10 -2.096173362291473E-10 4.300605465137931E-11

Ephemeris | Orbit Diagram | Orbital Elements | Mission Design | Physical Parameters | Discovery Circumstances ]

Physical Parameter Table
Parameter Symbol Value Units Sigma Reference Notes
absolute magnitude H 15.1   n/a MPO439713  
diameter diameter 3.795 km 0.698 urn:nasa:pds:neowise_diameters_albedos::2.0[mainbelt] (http://adsabs.harvard.edu/abs/2011ApJ...741...68M)  
geometric albedo albedo 0.123   0.036 urn:nasa:pds:neowise_diameters_albedos::2.0[mainbelt] (http://adsabs.harvard.edu/abs/2011ApJ...741...68M)  

105358 (2000 QO110)          Discovered 2000-Aug-24 by LINEAR at Socorro
Reference: 20051019/Numbers.arcLast Updated: 2005-10-26

Alternate Designations
 2000 QO110 = 2001 XW57 
Ephemeris | Orbit Diagram | Orbital Elements | Mission Design | Physical Parameters | Discovery Circumstances ]
ABOUT SSD CREDITS/AWARDS PRIVACY/COPYRIGHT GLOSSARY LINKS
FirstGov 2020-Aug-12 22:31 UT
(server date/time)  
NASA Home Page
Site Manager:   Ryan S. Park
Webmaster  Alan B. Chamberlin